Location: Harbor Island
(32.3990°N, 80.4435°W)
Time: 14:24:25
(UTC-05:00)

Daily predictions for brighter satellites

Satellite Brightness Start Highest point End
(mag) Time Altitude Azimuth Time Altitude Azimuth Time Altitude Azimuth
Nadezhda 1 Rocket 4.0 18:34:45 10° N 18:40:51 84° E 18:46:55 10° S
Cosmos 1140 Rocket 3.6 18:38:40 10° S 18:43:36 50° ESE 18:48:34 10° NNE
DELTA 2 R/B (1) 4.1 18:39:50 10° WNW 18:45:16 48° NNE 18:50:41 10° E
Cosmos 1461 2.9 18:42:08 10° NNW 18:46:08 60° ENE 18:50:14 10° SE
Cosmos 1602 4.1 18:43:17 10° SSE 18:46:54 40° E 18:50:33 10° NNE
Resurs 01 Rocket 3.1 18:44:40 10° ESE 18:47:34 17° ENE 18:50:27 10° NNE
Cosmos 1300 Rocket 3.9 18:44:14 10° SSE 18:48:22 42° E 18:52:32 10° NNE
CENTAUR R/B 4.1 18:41:56 10° NW 18:49:45 54° WSW 18:57:49 10° S
Cosmos 2292 Rocket 4.1 18:46:30 10° S 18:51:12 79° E 18:57:40 10° N
Cosmos 614 Rocket 4.3 18:46:42 10° S 18:51:29 43° ESE 18:56:16 10° NNE
OAO 3 Copernicus 4.4 18:46:55 10° WNW 18:52:00 72° N 18:56:45 12° E
Cosmos 1833 4.2 18:47:43 10° SSW 18:53:27 89° ESE 18:59:08 10° NNE
Abrixas rocket 2.6 18:50:40 10° SSW 18:53:54 47° SE 18:56:51 12° ENE
ALOS 3.0 18:51:21 10° SE 18:55:23 30° ENE 18:59:26 10° NNE
ASTRO E2 4.3 18:52:24 10° W 18:55:58 30° SSW 18:59:32 10° SE
COSMO-SKYMED 1 4.3 18:53:54 10° N 18:57:54 37° WNW 19:01:52 10° SW
Spot 2 Rocket 4.4 18:55:44 10° SE 18:59:50 26° ENE 19:03:58 10° NNE
Cosmos 2181 Rocket 4.2 18:54:48 10° N 19:00:52 50° E 19:07:00 10° SSE
FREGAT/IRIS 2.8 19:00:05 10° SSE 19:03:04 51° ENE 19:06:05 10° N
SL-16 R/B 2.7 19:00:51 10° NNW 19:06:28 65° WSW 19:12:03 10° S
Cosmos 1340 2.6 19:05:18 10° N 19:09:03 63° E 19:12:47 10° SSE
Cosmos 1709 Rocket 4.1 19:04:17 10° S 19:10:32 82° W 19:16:45 10° N
Cosmos 1850 Rocket 4.1 19:05:32 10° S 19:10:41 57° ESE 19:15:55 10° NNE
Cosmos 2074 Rocket 4.4 19:05:01 10° SSE 19:10:43 39° E 19:16:27 10° NNE
Cosmos 2184 Rocket 4.4 19:07:52 10° SSE 19:13:40 40° E 19:19:25 10° NNE
FengYun 1-2 T 4.3 19:12:04 10° SSE 19:17:21 52° ENE 19:22:40 10° N
HJ-1C 3.5 19:16:56 10° SSE 19:20:12 51° ENE 19:23:29 10° N
Helios 1B rocket 3.3 19:18:13 16° NE 19:20:43 27° E 19:24:13 10° SSE
OTV 4 2.0 19:19:02 10° SSW 19:21:21 21° SSE 19:21:31 21° SE
SJ-6B 2.8 19:17:26 10° SSE 19:21:29 86° WSW 19:25:27 10° NNW
Cosmos 2322 Rocket 3.5 19:17:31 10° NW 19:22:47 43° WSW 19:28:04 10° S
Okean 1 Rocket 3.0 19:18:39 10° S 19:23:06 84° E 19:27:37 10° N
FENGYUN 3A 3.6 19:19:50 10° SSE 19:25:09 63° ENE 19:30:31 10° N
Tiangong 2 0.9 19:22:27 10° WNW 19:25:32 88° NNE 19:26:32 39° ESE
Hubble Space Telescope 2.1 19:26:57 10° SW 19:30:21 25° SSE 19:31:23 22° SE
Meteor 1-19 Rocket 4.2 19:25:24 10° N 19:31:07 81° E 19:36:54 10° S
Gbstr 26 Del rocket 4.5 19:30:39 10° W 19:33:58 27° NW 19:36:53 12° NNE
Cosmos 2322 3.6 19:33:32 10° NNW 19:39:16 78° ENE 19:44:56 10° SSE
Cosmos 1238 Rocket 3.1 19:37:09 10° NNW 19:40:00 46° W 19:42:56 10° SSW
Atlas Centaur 2 4.0 19:38:17 10° SSW 19:42:30 17° SSE 19:43:34 16° SE
CZ-2D R/B 3.8 19:43:32 40° NE 19:43:32 40° NE 19:46:27 10° N
GPS 2-04 Rocket1 2.9 19:41:07 10° WSW 19:45:25 78° NNW 19:46:29 50° ENE
Cosmos 2285 Rocket 4.5 19:40:50 10° N 19:46:45 38° ENE 19:47:50 35° E
GEOS 3 Rocket 4.5 19:41:55 10° NNE 19:46:58 50° NW 19:52:03 10° SW
Cosmos 1025 Rocket 3.0 19:43:32 10° N 19:47:50 56° E 19:48:42 47° SE
H-2A R/B 2.5 19:46:26 32° SSE 19:48:03 80° ENE 19:51:47 10° N
OAO 3 Rocket 4.5 19:44:15 10° SSW 19:48:11 25° SSE 19:48:11 25° SSE
Meteor 2-13 Rocket 4.5 19:42:42 10° SSE 19:48:31 51° E 19:54:22 10° NNE
Cosmos 1536 3.5 19:44:57 10° SSW 19:48:51 53° W 19:52:45 10° N
SL-19 R/B 4.3 19:44:49 10° SSE 19:50:25 88° ENE 19:56:20 10° NNW
Okean 1-7 Rocket 3.5 19:49:32 10° N 19:54:05 86° W 19:58:32 10° S
COSMOS 2428 2.8 19:49:04 10° N 19:54:37 52° ENE 19:55:38 46° ESE
Meteor 1-23 Rocket 4.1 19:49:05 10° N 19:54:53 75° E 20:00:35 10° SSE
Cosmos 2237 4.1 19:49:11 10° NNW 19:54:53 69° ENE 19:57:28 33° SE
Cosmos 2333 4.4 19:50:29 10° N 19:55:59 46° ENE 19:56:21 45° ENE
Meteor 2-4 Rocket 3.6 19:51:39 10° N 19:57:10 83° W 20:02:32 10° S
Cosmos 2237 Rocket 4.2 19:54:45 10° NNE 19:55:53 13° NNE 19:55:53 13° NNE
Cosmos 2219 4.1 20:04:48 10° SW 20:10:19 48° WNW 20:15:52 10° N
Cosmos 2360 Rocket 3.3 20:08:19 10° NW 20:13:38 43° WSW 20:18:56 10° S
Cosmos 2219 Rocket 3.2 20:10:19 10° N 20:13:35 31° NNE 20:13:35 31° NNE
Cosmos 2227 Rocket 3.5 20:11:04 10° S 20:13:25 25° S 20:13:25 25° S
Skynet4D Del rocket 4.4 20:14:18 10° SW 20:18:31 35° S 20:18:31 35° S
Cosmos 1570 Rocket 4.4 20:17:04 10° NNW 20:22:13 60° WSW 20:24:15 35° SSW
Resurs 01 Rocket 3.3 20:19:46 10° SSW 20:23:44 33° W 20:27:43 10° NNW
ATLAS CENTAUR R/B 3.7 20:27:43 10° WSW 20:30:46 26° W 20:30:46 26° W
DELTA 2 R/B (1) 3.8 20:26:21 10° WNW 20:31:31 67° WSW 20:31:31 67° WSW
Cosmos 2333 Rocket 3.8 20:43:46 10° NNW 20:46:14 26° N 20:46:14 26° N
USA 229 DEB 3.9 20:48:17 10° NNW 20:54:32 70° NW 20:54:32 70° NW
USA 229 3.9 20:48:23 10° NNW 20:54:35 69° NNW 20:54:35 69° NNW
ATLAS 3B CENTAUR R/B 4.4 20:53:30 10° SW 21:16:23 52° S 21:16:23 52° S
